Weather History for Phoenix Deer Valley, AZ

Change the Weather History Date:

Wednesday, April 3, 2013

  Actual Average Record
Temperature  
Mean Temperature 72 °F -  
Max Temperature 84 °F 72 °F 88 °F (2007)
Min Temperature 61 °F 50 °F 39 °F (1999)
Cooling Degree Days 8    
Growing Degree Days 22 (Base 50)    
Moisture  
Dew Point 30 °F    
Average Humidity 22    
Maximum Humidity 32    
Minimum Humidity 14    
Precipitation  
Precipitation 0.00 in - - ()
Sea Level Pressure  
Sea Level Pressure 29.91 in    
Wind  
Wind Speed 4 mph (NNE)    
Max Wind Speed 12 mph    
Max Gust Speed -    
Visibility 10 miles    
Events      
Averages and records for this station are not official NWS values.
T = Trace of Precipitation, MM = Missing Value Source: NWS Daily Summary

Daily Weather History Graph

Daily Weather History Graph

Search for Another Location

Airport:

Trip Planner

Search our weather history database for the weather conditions in past years. The results will help you decide how hot, cold, wet, or windy it might be!

Date:

Astronomy

Apr. 03, 2013 Rise Set
Actual Time 6:12 AM MST 6:50 PM MST
Civil Twilight 5:47 AM MST 7:15 PM MST
Nautical Twilight 5:18 AM MST 7:45 PM MST
Astronomical Twilight 4:47 AM MST 8:15 PM MST
Moon 1:38 AM MST (4/3) 12:24 PM MST (4/3)
Length of Visible Light 13h 28m
Length of Day
12h 37m
Last Quarter, 43% of the Moon is Illuminated
Apr 3
Last Quarter
Apr 10
New
Apr 18
First Quarter
Apr 25
Full
May 2
Last Quarter

Hourly Weather History & Observations

Time (MST) Temp. Dew Point Humidity Pressure Visibility Wind Dir Wind Speed Gust Speed Precip Events Conditions
12:53 AM 63.0 °F 28.0 °F 27% 29.87 in 10.0 mi Calm Calm - N/A   Clear
1:53 AM 63.0 °F 28.9 °F 28% 29.87 in 10.0 mi North 5.8 mph - N/A   Clear
2:53 AM 66.9 °F 28.9 °F 24% 29.87 in 10.0 mi North 11.5 mph - N/A   Clear
3:53 AM 64.0 °F 30.0 °F 28% 29.87 in 10.0 mi Calm Calm - N/A   Clear
4:53 AM 63.0 °F 30.0 °F 29% 29.89 in 10.0 mi NNE 8.1 mph - N/A   Clear
5:53 AM 61.0 °F 30.9 °F 32% 29.91 in 10.0 mi North 5.8 mph - N/A   Clear
6:53 AM 63.0 °F 30.9 °F 30% 29.94 in 10.0 mi North 9.2 mph - N/A   Clear
7:53 AM 66.9 °F 32.0 °F 27% 29.96 in 10.0 mi Calm Calm - N/A   Clear
8:53 AM 72.0 °F 34.0 °F 25% 29.97 in 10.0 mi Variable 3.5 mph - N/A   Clear
9:53 AM 75.0 °F 34.0 °F 22% 29.97 in 10.0 mi SSE 5.8 mph - N/A   Clear
10:53 AM 77.0 °F 33.1 °F 20% 29.97 in 10.0 mi Calm Calm - N/A   Clear
11:53 AM 79.0 °F 30.0 °F 17% 29.96 in 10.0 mi NNW 3.5 mph - N/A   Clear
12:53 PM 81.0 °F 30.9 °F 16% 29.94 in 10.0 mi Variable 3.5 mph - N/A   Clear
1:53 PM 82.0 °F 28.9 °F 14% 29.91 in 10.0 mi ENE 3.5 mph - N/A   Clear
2:53 PM 82.0 °F 28.9 °F 14% 29.89 in 10.0 mi Variable 3.5 mph - N/A   Clear
3:53 PM 82.9 °F 28.9 °F 14% 29.88 in 10.0 mi Calm Calm - N/A   Clear
4:53 PM 84.0 °F 30.0 °F 14% 29.86 in 10.0 mi SW 11.5 mph - N/A   Clear
5:53 PM 82.0 °F 28.9 °F 14% 29.87 in 10.0 mi SSW 10.4 mph - N/A   Clear
6:53 PM 80.1 °F 30.0 °F 16% 29.87 in 10.0 mi SW 6.9 mph - N/A   Clear
7:53 PM 77.0 °F 30.9 °F 19% 29.89 in 10.0 mi South 3.5 mph - N/A   Clear
8:53 PM 73.9 °F 30.9 °F 21% 29.91 in 10.0 mi Calm Calm - N/A   Clear
9:53 PM 73.0 °F 30.0 °F 20% 29.93 in 10.0 mi ENE 3.5 mph - N/A   Clear
10:53 PM 68.0 °F 30.9 °F 25% 29.94 in 10.0 mi Calm Calm - N/A   Clear
11:53 PM 66.0 °F 32.0 °F 28% 29.94 in 10.0 mi Calm Calm - N/A   Clear